Home   Weather   Horw   Past weeks

Flag for Switzerland Past Weather in Horw, Lucerne, Switzerland — Yesterday and Last 2 Weeks

Now
58 °F

Cool.


Feels Like: 58 °F
Forecast: 53 / 81 °F
Wind: 1 mph from Southwest

Location: Giswil

Current Time: Sep 1, 2016 at 5:46:25 AM

Latest Report: Sep 1, 2016 at 5:00 AM


Visibility: N/A

Pressure: 30.21 "Hg

Humidity: 99%

Dew Point: 58 °F

Location of HorwLocation

Past Weather in Horw — Graph

°F

Horw Temperature Yesterday

Maximum temperature yesterday: 77 °F (at 4:00 PM)
Minimum temperature yesterday: 54 °F (at 7:00 AM)
Average temperature yesterday: 65 °F

High & Low Weather Summary for the Past Weeks

 TemperatureHumidityPressure
High87 °F (Aug 26, 5:00 PM)100% (Aug 17, 6:00 AM)30.41 "Hg (Aug 17, 6:00 AM)
Low49 °F (Aug 22, 7:00 AM)44% (Aug 26, 5:00 PM)29.83 "Hg (Aug 17, 6:00 PM)
Average66 °F84%30.09 "Hg
* Reported Aug 17 4:00 AM — Sep 1 4:00 AM, Horw, Weather by CustomWeather, © 2016

Note: Actual official high and low records may vary slightly from our data, if they occured in-between our weather recording intervals... More about our weather records

Advertising

Horw Weather History for the Previous 24 Hours

Scroll right to see more
 ConditionsComfort  
Time TempWeatherWind HumidityBarometerVisibility
4:00 AM
Thu, Sep 1
60 °FCool.2 mph99%30.21 "HgN/A
3:00 AM62 °FCool.2 mph99%30.20 "HgN/A
2:00 AM63 °FMild.1 mph98%30.20 "HgN/A
1:00 AM64 °FMild.2 mph95%30.21 "HgN/A
12:00 AM64 °FMild.2 mph97%30.22 "HgN/A
11:00 PM
Wed, Aug 31
67 °FMild.2 mph85%30.20 "HgN/A
10:00 PM71 °FMild.5 mph64%30.14 "HgN/A
9:00 PM64 °FMild.No wind96%30.15 "HgN/A
8:00 PM66 °FMild.2 mph92%30.12 "HgN/A
7:00 PM70 °FMild.1 mph80%30.09 "HgN/A
6:00 PM76 °FMild.2 mph61%30.07 "HgN/A
5:00 PM75 °FMild.No wind65%30.08 "HgN/A
4:00 PM77 °FWarm.1 mph58%30.08 "HgN/A
2:00 PM74 °FMild.1 mph62%30.11 "HgN/A
1:00 PM72 °FMild.1 mph66%30.12 "HgN/A
12:00 PM69 °FMild.1 mph72%30.14 "HgN/A
11:00 AM67 °FMild.2 mph77%30.15 "HgN/A
10:00 AM65 °FMild.1 mph81%30.15 "HgN/A
9:00 AM62 °FMild.No wind92%30.15 "HgN/A
8:00 AM55 °FCool.No wind99%30.17 "HgN/A
7:00 AM54 °FCool.2 mph99%30.18 "HgN/A
6:00 AM55 °FCool.No wind99%30.17 "HgN/A
5:00 AM56 °FCool.2 mph99%30.16 "HgN/A
Weather by CustomWeather, © 2016

See weather overviewHow to use our weather pages